Wind_Speed
3 3 3 3 3 4 4 4 4 3 2 2 3 3 3 2 2 2 2 1 1 1 1 1 0 1 1 2 2 2 1 2 2 2 2 2 2 2 2 2 2 2 2 2 1 2 3 3 4
3 3 3 3 3 4 4 4 3 3 3 2 2 2 3 3 2 2 2 2 1 1 1 1 0 1 1 1 1 2 2 2 3 2 2 2 1 1 1 2 2 1 1 1 1 2 2 3 3
3 3 3 4 4 3 4 4 3 3 3 2 2 2 2 3 2 3 2 2 2 1 2 1 1 1 1 1 1 2 2 3 3 2 2 2 2 2 2 2 2 2 1 2 2 2 2 3 3
3 3 4 5 4 3 3 3 2 3 3 3 2 2 2 3 3 3 3 3 2 2 2 2 1 1 1 2 2 2 2 3 3 2 2 2 3 3 3 3 3 3 3 3 3 3 3 3 4
3 3 4 5 5 4 3 3 3 3 3 3 3 2 2 3 3 3 3 3 3 3 2 2 2 2 2 2 2 2 3 3 3 3 3 3 3 3 3 4 4 4 5 5 4 4 4 4 4
3 3 4 4 4 4 4 3 3 3 3 3 3 3 3 3 3 3 4 3 3 3 3 3 3 3 3 3 3 4 4 4 4 4 4 4 4 4 5 4 4 5 6 5 5 5 4 5 5
3 4 4 4 3 3 4 4 3 3 4 4 3 3 3 3 3 3 4 4 4 4 4 4 4 4 4 5 5 5 5 5 5 5 5 5 5 6 6 6 5 5 6 6 6 6 6 6 6
4 5 4 3 3 3 3 3 3 4 4 4 4 4 4 4 4 4 4 4 4 4 5 5 5 6 6 6 6 6 6 6 6 7 7 7 7 7 7 7 7 7 7 7 7 7 7 7 7
5 5 4 3 3 3 3 3 4 4 4 4 4 4 4 4 4 4 4 5 5 5 6 6 6 7 7 7 7 7 8 8 8 8 8 8 8 8 8 8 8 8 8 8 8 8 8 8 8
5 5 4 3 4 4 3 3 4 4 3 4 4 4 4 4 4 4 5 5 6 6 7 7 7 8 8 8 8 8 8 8 8 8 8 8 9 9 9 9 9 9 9 9 9 9 10 10 9
5 5 5 5 5 4 4 4 4 4 3 3 4 3 4 4 5 5 6 6 7 7 8 8 9 9 9 8 8 8 8 9 9 8 8 9 9 9 9 9 10 10 10 10 10 10 10 10 9
5 6 5 5 5 6 6 5 4 4 4 4 4 4 4 4 5 6 7 7 7 8 8 9 9 10 9 9 9 9 10 10 10 10 10 10 10 10 11 10 11 11 11 10 10 10 10 10 10
5 5 5 6 6 6 6 6 5 5 5 4 5 5 5 5 6 7 7 8 8 8 9 9 9 10 10 10 10 10 10 11 11 11 11 11 11 11 11 11 11 11 11 11 11 11 10 9 9
6 7 7 6 6 6 7 6 6 6 6 5 6 6 7 6 6 7 8 9 9 9 9 10 10 9 9 10 10 10 10 11 11 11 11 11 12 12 12 12 12 12 12 11 11 11 11 10 10
8 8 8 7 7 7 8 7 7 7 7 6 7 7 8 7 8 8 9 9 9 10 10 9 9 9 10 10 10 10 11 11 12 12 12 12 12 13 13 14 13 12 12 11 11 11 11 11 10
9 9 9 8 8 8 8 8 7 7 7 7 8 8 8 8 9 9 10 10 10 10 10 10 11 10 10 11 11 11 11 12 12 12 12 12 13 13 14 13 12 12 12 12 11 11 11 11 11
10 10 9 9 9 9 9 9 8 8 8 8 8 9 9 9 10 10 10 10 10 10 11 12 12 12 12 12 12 12 12 12 12 12 13 13 13 13 13 13 13 12 12 12 12 12 11 11 11
11 11 11 10 10 10 10 9 10 10 9 9 9 9 10 10 10 11 11 10 11 12 12 13 13 13 13 13 13 13 13 13 13 13 13 13 13 13 13 13 13 13 13 13 13 13 12 12 12
12 12 12 11 11 12 11 11 11 11 11 10 10 10 10 11 11 11 12 12 12 13 13 14 14 14 14 14 14 13 14 14 14 13 13 14 13 14 13 14 14 14 13 14 14 14 13 12 13
13 13 13 12 12 12 12 12 12 12 12 12 11 11 11 11 12 13 13 13 13 14 14 15 15 15 15 15 15 14 14 14 15 14 14 14 15 15 14 14 15 14 14 14 14 15 14 13 13
13 14 14 14 12 13 13 12 12 12 12 12 12 12 12 12 13 14 14 14 14 14 15 16 16 16 16 15 15 15 15 15 15 15 15 15 15 15 15 15 15 14 14 14 15 15 14 14 13
13 14 15 15 14 13 13 13 11 11 12 12 12 12 12 13 14 14 15 15 16 16 16 17 17 17 17 17 17 17 16 16 16 16 16 16 16 16 15 15 15 15 15 15 15 15 15 15 14
14 14 15 15 16 15 15 14 12 12 12 12 12 13 14 15 15 16 16 16 17 17 17 17 17 18 18 18 19 19 18 18 17 17 17 17 16 15 15 15 15 16 15 15 15 16 16 16 16
14 14 14 15 16 17 15 15 13 13 13 14 14 15 15 15 16 17 17 17 18 18 18 18 18 18 19 19 20 20 19 19 18 18 18 18 18 17 17 16 16 16 16 16 16 17 17 17 17
14 14 15 15 15 16 16 16 15 14 14 14 15 16 17 17 17 17 18 18 18 18 19 19 19 19 19 20 20 20 20 20 19 19 19 19 19 19 18 18 18 17 17 18 17 17 17 18 18
14 15 16 16 16 16 16 17 16 16 16 16 16 17 17 18 18 18 18 18 18 18 19 19 20 21 21 21 21 21 21 21 20 20 20 20 20 20 19 19 18 18 18 19 18 18 18 18 19
15 16 17 18 18 18 18 18 17 16 17 17 16 17 18 18 19 19 18 18 19 19 20 20 21 21 21 21 21 22 22 22 22 21 21 21 21 21 20 20 20 19 19 19 19 20 19 20 20
17 17 18 19 19 20 20 19 18 18 17 17 17 17 18 18 19 19 19 19 19 20 20 21 22 22 23 23 22 22 23 22 23 23 22 22 23 23 22 22 21 20 20 21 21 21 21 21 21
17 18 19 20 20 20 20 20 18 18 18 18 18 18 18 19 20 21 21 21 21 22 23 23 23 24 24 24 23 23 23 24 24 24 24 24 24 24 24 24 23 22 22 22 22 22 21 21 22
17 17 19 19 20 20 20 19 17 19 20 20 20 20 20 20 21 22 22 23 23 23 24 24 25 25 25 24 24 24 24 24 25 25 26 26 26 25 25 25 24 24 24 24 24 24 23 22 23
Wind_Direction
207 204 193 194 191 185 191 192 182 163 145 140 155 168 172 196 201 196 171 151 169 185 176 151 184 292 307 309 320 317 314 323 314 309 316 312 284 273 268 262 254 270 282 270 268 262 265 260 254
212 208 205 208 212 204 192 182 166 153 161 165 170 182 177 181 187 176 169 164 168 170 178 172 309 319 314 319 313 312 318 330 325 311 317 322 289 258 276 289 279 288 304 292 278 269 272 271 261
216 214 215 223 224 218 202 192 175 166 177 184 189 191 181 183 182 182 182 189 193 194 199 219 262 310 310 310 326 321 340 339 333 326 317 301 277 288 286 296 287 303 315 303 288 275 280 278 280
225 224 227 227 226 218 204 198 189 186 194 201 207 206 197 196 201 201 208 213 222 223 216 219 239 283 299 287 293 308 314 324 329 320 302 291 289 290 296 300 285 283 300 306 293 282 282 281 284
233 231 237 234 230 226 225 211 205 212 214 219 226 217 213 213 214 214 223 232 239 236 234 230 233 252 272 281 284 293 297 303 306 303 302 299 296 301 310 291 284 291 297 293 289 281 283 279 282
238 241 247 245 242 243 238 221 219 238 246 244 243 236 230 229 229 227 233 244 252 251 250 252 257 259 265 273 281 289 291 291 291 291 290 294 286 284 291 297 292 297 299 295 289 287 287 286 285
244 251 245 246 247 248 249 242 233 231 242 248 247 244 240 244 242 241 243 250 257 260 260 262 265 263 268 274 278 286 289 287 286 285 284 286 286 283 286 286 289 294 294 294 291 288 285 284 284
249 255 248 241 248 247 253 255 249 236 241 251 251 245 247 252 252 247 250 260 263 262 266 268 273 274 274 276 275 279 281 282 285 285 283 281 280 280 282 283 283 286 292 293 296 297 289 282 282
249 255 254 243 247 249 245 256 258 252 246 248 253 251 251 253 250 249 254 263 270 270 271 273 277 279 276 276 277 277 278 281 284 284 283 282 280 279 281 282 282 284 286 291 293 298 291 285 285
245 249 253 250 251 249 246 248 254 255 248 251 253 257 253 255 255 254 258 263 268 272 274 275 276 278 278 277 276 276 279 283 286 286 286 284 281 280 281 281 282 284 285 287 288 290 288 286 283
246 249 256 259 256 252 250 254 256 266 267 268 265 268 260 263 263 264 268 271 270 271 274 276 277 278 276 275 276 275 277 282 285 285 283 284 283 281 281 281 281 282 285 287 287 285 284 283 279
250 252 256 257 256 257 259 262 262 268 276 281 285 281 274 273 275 270 272 274 272 274 274 276 278 277 276 273 274 275 276 279 281 279 278 281 283 282 281 281 283 285 287 287 286 283 279 279 278
259 260 259 259 261 260 262 263 263 263 265 270 280 286 291 283 278 277 277 280 277 278 278 278 278 276 276 274 273 274 277 278 277 278 280 281 281 283 282 279 278 280 281 283 283 280 276 276 276
259 263 265 264 266 267 267 262 259 261 264 269 279 287 292 299 294 285 280 279 279 277 276 279 280 277 274 274 275 274 276 279 277 277 278 280 280 281 283 283 281 280 280 280 279 276 275 275 272
258 263 266 270 271 267 267 264 265 267 268 271 278 286 292 296 294 290 286 284 281 278 276 278 280 280 278 277 279 279 279 279 279 278 277 278 280 282 283 282 282 281 279 278 276 275 276 275 272
259 264 266 267 269 266 266 267 268 268 270 273 277 283 288 289 289 286 285 284 283 279 274 275 277 279 278 278 281 282 282 280 279 279 276 275 276 279 283 282 281 280 279 279 278 275 275 274 271
260 262 261 256 261 265 265 266 269 269 273 275 277 280 284 284 284 284 283 281 280 277 274 272 273 276 277 279 281 281 280 279 280 280 278 276 276 277 279 279 280 281 279 280 279 276 274 274 272
255 255 254 250 254 258 260 262 267 272 273 274 277 280 281 279 280 282 280 279 278 276 275 274 275 275 276 279 280 279 278 277 278 280 278 276 276 276 276 277 279 279 278 278 276 275 275 274 273
257 256 253 248 251 256 260 265 269 273 273 272 274 275 274 274 278 280 281 280 279 279 276 276 278 277 276 275 276 277 276 275 277 278 281 282 282 279 277 276 277 277 276 275 274 274 273 272 271
257 257 255 252 253 255 261 266 268 270 272 273 274 274 275 276 277 278 281 282 279 278 278 276 276 276 276 274 273 274 274 272 272 273 278 280 281 282 281 280 278 276 274 273 273 274 270 269 268
259 259 259 255 254 259 261 264 265 268 270 271 273 274 275 277 278 279 279 280 280 280 280 279 277 276 276 275 274 273 273 273 272 273 274 276 278 279 278 276 275 274 274 274 275 274 270 268 267
260 261 262 259 256 257 266 266 264 269 271 274 278 278 278 278 278 279 278 278 278 279 280 281 279 277 275 275 274 274 274 273 273 273 273 274 275 275 277 275 273 273 272 272 273 270 269 268 268
262 262 260 258 257 260 264 268 266 267 271 275 278 281 283 282 280 280 278 277 276 277 280 281 281 278 275 273 273 273 272 271 272 273 273 273 273 276 278 278 276 275 274 273 272 272 269 268 269
260 259 258 258 259 261 265 271 272 269 274 278 279 281 283 285 284 282 280 275 276 277 278 278 278 279 276 273 271 270 270 270 270 270 271 272 272 274 276 275 276 275 275 273 272 270 269 270 271
257 259 259 258 260 263 266 270 274 276 280 282 282 281 281 284 285 283 281 277 275 276 276 277 278 279 278 277 274 272 270 270 270 270 269 270 271 271 274 275 273 273 273 272 272 273 271 271 272
258 259 259 258 260 264 265 270 273 276 279 280 281 281 280 281 282 283 279 275 275 274 275 276 276 277 279 279 276 272 271 271 271 270 269 270 271 271 271 272 273 272 271 271 271 273 272 271 271
264 263 263 261 261 264 269 273 272 274 278 280 281 281 281 280 282 282 281 277 276 275 275 276 277 276 278 280 278 274 271 271 271 270 269 269 269 269 270 271 271 270 270 271 270 270 271 270 272
264 265 263 261 262 266 269 271 275 275 277 280 281 282 282 283 283 283 281 278 275 275 275 275 276 276 277 278 278 275 272 271 270 270 270 268 268 268 270 271 269 267 267 269 270 271 271 271 271
266 261 261 262 264 268 270 271 273 274 276 279 281 281 283 283 284 284 282 279 277 277 277 276 276 276 275 276 275 273 272 270 269 269 269 270 269 267 267 269 267 267 267 268 268 269 272 272 272
266 262 262 262 263 266 269 272 273 273 276 279 280 282 283 283 283 283 282 281 280 279 279 279 278 276 275 273 272 272 271 270 270 270 270 270 270 269 267 266 265 265 266 268 268 269 271 272 272
Height
5872 5872 5873 5874 5875 5875 5874 5875 5875 5876 5876 5875 5876 5877 5877 5878 5879 5882 5879 5878 5878 5878 5878 5878 5878 5878 5878 5879 5879 5878 5879 5878 5878 5878 5877 5877 5876 5875 5875 5875 5875 5875 5875 5875 5874 5874 5874 5874 5874
5872 5872 5874 5874 5874 5874 5875 5875 5875 5876 5876 5875 5876 5877 5877 5877 5878 5878 5878 5878 5878 5878 5878 5878 5878 5878 5878 5878 5878 5878 5878 5878 5878 5877 5877 5877 5876 5875 5875 5875 5875 5875 5875 5874 5874 5874 5874 5874 5874
5871 5872 5874 5874 5873 5874 5874 5874 5875 5875 5875 5875 5876 5876 5877 5877 5877 5877 5878 5877 5877 5878 5878 5878 5878 5878 5878 5878 5878 5878 5878 5878 5877 5877 5877 5876 5876 5876 5875 5875 5875 5875 5874 5874 5874 5874 5873 5873 5873
5871 5873 5873 5873 5873 5874 5873 5874 5874 5874 5874 5875 5876 5876 5876 5877 5877 5877 5877 5877 5877 5877 5877 5877 5878 5878 5878 5878 5878 5878 5878 5877 5877 5877 5877 5876 5876 5876 5875 5875 5874 5874 5874 5874 5873 5873 5873 5872 5872
5871 5872 5872 5872 5872 5873 5873 5873 5873 5873 5874 5874 5875 5875 5875 5876 5876 5876 5876 5876 5876 5877 5876 5877 5877 5877 5877 5877 5877 5877 5877 5877 5877 5877 5876 5876 5876 5875 5875 5874 5874 5874 5874 5873 5873 5872 5872 5872 5871
5871 5871 5872 5871 5872 5872 5872 5872 5873 5873 5873 5873 5874 5874 5875 5875 5875 5875 5875 5875 5876 5876 5876 5876 5876 5876 5877 5877 5877 5877 5876 5876 5876 5876 5876 5876 5875 5875 5874 5874 5874 5873 5873 5872 5872 5872 5871 5871 5870
5871 5871 5871 5871 5871 5871 5871 5871 5872 5872 5872 5873 5873 5873 5873 5874 5874 5874 5874 5874 5875 5875 5875 5875 5875 5875 5876 5876 5876 5875 5875 5875 5875 5875 5875 5874 5874 5874 5873 5873 5872 5872 5872 5871 5871 5870 5870 5869 5869
5870 5871 5870 5870 5870 5870 5870 5871 5871 5871 5871 5872 5872 5872 5873 5873 5873 5873 5873 5873 5874 5874 5874 5874 5874 5874 5874 5874 5874 5874 5874 5874 5873 5873 5873 5873 5873 5872 5872 5872 5871 5871 5870 5870 5870 5869 5869 5868 5867
5869 5870 5869 5869 5869 5869 5869 5870 5870 5870 5870 5871 5871 5871 5872 5872 5872 5872 5872 5872 5872 5872 5873 5873 5873 5873 5873 5873 5872 5872 5872 5872 5872 5871 5871 5871 5871 5871 5870 5870 5869 5869 5869 5868 5868 5867 5867 5866 5866
5868 5869 5868 5868 5868 5868 5868 5869 5869 5869 5869 5869 5870 5870 5870 5870 5871 5871 5871 5871 5871 5871 5871 5871 5871 5871 5871 5871 5871 5871 5870 5870 5870 5870 5869 5869 5869 5869 5868 5868 5867 5867 5867 5866 5866 5865 5865 5864 5864
5867 5867 5867 5867 5867 5867 5867 5868 5868 5868 5868 5869 5868 5869 5869 5869 5869 5870 5870 5870 5870 5870 5870 5869 5869 5869 5869 5869 5869 5869 5869 5868 5868 5868 5867 5867 5867 5866 5866 5866 5865 5865 5864 5864 5864 5863 5863 5862 5861
5865 5865 5865 5865 5865 5866 5866 5866 5867 5867 5867 5867 5867 5867 5867 5868 5868 5868 5868 5868 5868 5868 5868 5868 5867 5867 5867 5867 5867 5867 5866 5866 5866 5866 5865 5865 5864 5864 5864 5864 5863 5863 5862 5862 5861 5861 5860 5860 5859
5864 5864 5864 5864 5864 5864 5865 5865 5865 5865 5866 5865 5866 5866 5866 5866 5866 5866 5866 5866 5866 5866 5866 5865 5865 5865 5865 5864 5864 5864 5864 5864 5863 5863 5862 5862 5862 5862 5861 5861 5860 5860 5860 5859 5859 5858 5858 5857 5857
5862 5862 5862 5862 5862 5862 5863 5863 5864 5864 5864 5864 5864 5864 5864 5864 5864 5864 5864 5864 5864 5863 5863 5863 5863 5863 5862 5862 5862 5861 5861 5861 5861 5860 5860 5859 5859 5859 5858 5858 5858 5857 5857 5857 5856 5856 5855 5855 5855
5860 5861 5861 5861 5861 5861 5861 5861 5862 5862 5862 5862 5862 5862 5862 5862 5862 5862 5862 5861 5861 5861 5861 5861 5860 5860 5859 5859 5859 5858 5858 5858 5858 5857 5857 5856 5856 5855 5855 5855 5854 5854 5854 5854 5853 5853 5852 5852 5852
5858 5858 5859 5859 5858 5859 5860 5860 5860 5860 5860 5860 5860 5860 5860 5860 5859 5859 5859 5859 5858 5858 5858 5858 5857 5857 5857 5857 5856 5855 5855 5855 5854 5854 5854 5853 5853 5852 5852 5852 5851 5851 5851 5851 5850 5850 5850 5849 5849
5856 5855 5856 5857 5856 5856 5857 5857 5857 5858 5858 5858 5858 5858 5858 5857 5857 5856 5856 5856 5856 5855 5855 5855 5854 5854 5854 5853 5853 5852 5852 5852 5851 5851 5850 5850 5850 5849 5849 5849 5848 5848 5848 5848 5847 5847 5847 5847 5846
5853 5852 5852 5853 5853 5853 5853 5854 5854 5855 5855 5855 5855 5855 5855 5855 5854 5853 5853 5853 5853 5852 5852 5851 5851 5851 5850 5850 5850 5849 5849 5848 5848 5848 5847 5846 5846 5846 5846 5845 5845 5845 5845 5844 5844 5844 5844 5844 5843
5848 5848 5849 5850 5850 5850 5850 5851 5851 5851 5852 5852 5852 5852 5852 5852 5851 5850 5850 5849 5849 5849 5848 5848 5848 5847 5847 5847 5846 5846 5845 5845 5844 5844 5843 5843 5842 5842 5842 5842 5841 5841 5841 5841 5840 5840 5840 5840 5840
5844 5844 5845 5846 5846 5846 5846 5847 5848 5848 5848 5848 5848 5848 5849 5848 5848 5847 5846 5846 5846 5845 5845 5844 5844 5844 5843 5843 5843 5842 5841 5841 5841 5840 5840 5839 5839 5838 5838 5837 5837 5837 5837 5837 5837 5836 5836 5836 5836
5840 5840 5841 5842 5843 5843 5843 5844 5844 5844 5844 5844 5845 5845 5845 5844 5844 5843 5843 5842 5842 5841 5841 5840 5840 5840 5839 5839 5839 5838 5838 5837 5837 5837 5836 5836 5835 5834 5834 5834 5833 5833 5833 5833 5833 5833 5833 5833 5833
5836 5837 5837 5838 5839 5839 5840 5840 5841 5840 5840 5840 5841 5841 5840 5840 5840 5839 5839 5838 5837 5837 5837 5836 5836 5835 5835 5835 5834 5834 5834 5834 5833 5833 5832 5832 5831 5831 5830 5830 5829 5829 5829 5829 5829 5829 5829 5829 5829
5832 5833 5833 5834 5835 5835 5835 5836 5838 5837 5837 5837 5837 5836 5836 5836 5835 5835 5834 5834 5833 5833 5832 5831 5831 5831 5830 5830 5830 5829 5829 5829 5828 5828 5828 5827 5827 5826 5826 5826 5825 5825 5825 5825 5825 5824 5825 5825 5825
5829 5829 5829 5830 5831 5831 5832 5832 5833 5833 5833 5833 5833 5832 5832 5831 5831 5830 5829 5829 5828 5828 5827 5827 5826 5825 5825 5825 5824 5824 5824 5824 5823 5823 5823 5822 5822 5822 5821 5821 5821 5821 5820 5820 5820 5820 5820 5820 5820
5825 5826 5826 5826 5826 5827 5828 5827 5829 5828 5828 5828 5828 5827 5827 5826 5826 5825 5824 5823 5823 5822 5822 5821 5821 5820 5819 5819 5818 5818 5818 5818 5818 5818 5818 5817 5817 5817 5816 5816 5816 5816 5815 5815 5815 5815 5815 5815 5815
5822 5822 5823 5823 5822 5822 5822 5822 5824 5823 5823 5823 5823 5822 5822 5821 5820 5820 5819 5818 5817 5817 5816 5816 5815 5814 5814 5813 5812 5812 5812 5812 5812 5812 5811 5811 5811 5811 5811 5811 5810 5810 5810 5810 5810 5810 5809 5809 5809
5817 5818 5818 5818 5817 5817 5817 5818 5818 5818 5818 5818 5818 5817 5816 5816 5815 5814 5813 5813 5812 5811 5811 5810 5809 5808 5808 5807 5806 5806 5806 5806 5805 5805 5805 5805 5805 5805 5805 5805 5805 5805 5805 5805 5805 5804 5804 5804 5804
5814 5814 5814 5812 5812 5812 5812 5812 5813 5813 5813 5813 5813 5812 5811 5810 5809 5808 5807 5807 5806 5805 5804 5804 5803 5802 5802 5801 5800 5800 5799 5799 5799 5799 5799 5799 5799 5798 5799 5799 5799 5799 5799 5799 5799 5798 5798 5798 5798
5809 5809 5808 5807 5807 5807 5806 5809 5808 5808 5807 5807 5807 5807 5806 5805 5804 5802 5801 5800 5799 5798 5798 5797 5796 5795 5795 5794 5794 5793 5793 5793 5793 5792 5792 5792 5792 5791 5792 5792 5792 5792 5792 5792 5792 5792 5792 5791 5791
5804 5803 5803 5803 5802 5801 5801 5804 5802 5801 5801 5801 5801 5800 5800 5799 5798 5797 5796 5794 5793 5792 5791 5790 5789 5788 5788 5787 5787 5786 5786 5786 5785 5785 5785 5785 5784 5784 5785 5785 5785 5785 5785 5785 5785 5785 5785 5785 5785